Date String (YYYY-MM-DD hh:mm:ss) UTC,Instrument flags,absolute air pressure of the measurement (hPa),sample flow rate (lpm),inlet stack bypass flow (lpm),air temperature of the measurement (°C),ambient temperature measured by the external sensor (°C),aerosol sample conditioner tube jacket temperature (°C),OPC LED temperature (°C),internal box temperature (°C),relative humidity of the measurement (%),span deviation,mass concentration of particles derived from Lorenz-Mie calculation of OPC scattering (μg/m³),mass concentration of particles derived from Lorenz-Mie calculation of OPC scattering (μg/m³),mass concentration of particles derived from Lorenz-Mie calculation of OPC scattering (μg/m³)
DateTimeUTC,F1_M11,P_M11,Q1_M11,Q2_M11,T1_M11,T2_M11,T3_M11,T4_M11,T5_M11,U1_M11,ZSPAN_M11,X0_M11,X2_M11,X1_M11
2024-06-18 15:00:00,SystemResetWarning,0823.9,5.00,000.00,027.3,026.5,000.0,036.0,029.2,016.2,0000.0,0039.83,0006.01,0002.23
2024-06-18 15:01:00,SystemResetWarning,0824.0,5.00,000.00,027.3,026.5,000.0,036.0,029.2,016.3,0000.0,0039.06,0005.92,0002.23
2024-06-18 15:02:00,SystemResetWarning,0823.9,5.00,000.00,027.3,026.5,000.0,036.0,029.3,015.8,0000.0,0040.74,0005.88,0002.23
2024-06-18 15:03:00,SystemResetWarning,0824.0,5.01,000.00,027.3,026.5,000.0,036.0,029.3,015.7,0000.0,0041.17,0005.81,0002.25
2024-06-18 15:04:00,SystemResetWarning,0824.0,5.00,000.00,027.4,026.5,000.0,036.0,029.3,015.7,0000.0,0040.87,0005.77,0002.26
2024-06-18 15:05:00,SystemResetWarning,0824.0,5.01,000.00,027.3,026.5,000.0,036.0,029.2,015.7,0000.0,0039.77,0005.75,0002.25
2024-06-18 15:06:00,SystemResetWarning,0824.0,5.01,000.00,027.3,026.5,000.0,036.0,029.2,015.7,0000.0,0038.93,0005.78,0002.25
2024-06-18 15:07:00,SystemResetWarning,0824.0,5.00,000.00,027.3,026.5,000.0,036.0,029.2,016.1,0000.0,0037.94,0005.77,0002.24
2024-06-18 15:08:00,SystemResetWarning,0824.0,4.99,000.00,027.3,026.5,000.0,036.0,029.2,015.8,0000.0,0038.35,0005.79,0002.25
2024-06-18 15:09:00,SystemResetWarning,0824.0,5.00,000.00,027.3,026.5,000.0,036.0,029.2,015.9,0000.0,0039.04,0005.73,0002.25
2024-06-18 15:10:00,SystemResetWarning,0824.0,4.99,000.00,027.3,026.5,000.0,036.0,029.2,016.3,0000.0,0037.31,0005.63,0002.27
2024-06-18 15:11:00,SystemResetWarning,0824.0,5.00,000.00,027.3,026.5,000.0,036.0,029.2,015.9,0000.0,0036.92,0005.62,0002.25
2024-06-18 15:12:00,SystemResetWarning,0824.0,5.02,000.00,027.3,026.5,000.0,036.0,029.2,015.7,0000.0,0036.24,0005.57,0002.23
2024-06-18 15:13:00,SystemResetWarning,0823.9,5.00,000.00,027.3,026.5,000.0,036.0,029.2,016.0,0000.0,0034.40,0005.52,0002.22
2024-06-18 15:14:00,SystemResetWarning,0824.0,4.99,000.00,027.3,026.5,000.0,036.0,029.2,016.0,0000.0,0033.54,0005.55,0002.22
2024-06-18 15:15:00,SystemResetWarning,0824.0,4.99,000.00,027.3,026.5,000.0,036.0,029.2,015.9,0000.0,0032.30,0005.60,0002.23
2024-06-18 15:16:00,SystemResetWarning,0824.1,5.00,000.00,027.3,026.5,000.0,036.0,029.2,016.3,0000.0,0032.97,0005.71,0002.23
2024-06-18 15:17:00,SystemResetWarning,0824.2,5.00,000.00,027.3,026.5,000.0,036.0,029.2,016.6,0000.0,0033.32,0005.59,0002.22
2024-06-18 15:18:00,SystemResetWarning,0824.3,5.00,000.00,027.3,026.5,000.0,036.0,029.2,016.7,0000.0,0034.36,0005.50,0002.21
2024-06-18 15:19:00,SystemResetWarning,0824.3,5.01,000.00,027.3,026.5,000.0,036.0,029.2,016.4,0000.0,0034.37,0005.43,0002.20
2024-06-18 15:20:00,SystemResetWarning,0824.3,5.00,000.00,027.3,026.5,000.0,036.0,029.2,016.6,0000.0,0032.96,0005.44,0002.20
2024-06-18 15:21:00,SystemResetWarning,0824.3,5.00,000.00,027.3,026.5,000.0,036.0,029.2,016.3,0000.0,0034.21,0005.43,0002.18
2024-06-18 15:22:00,SystemResetWarning,0824.3,4.99,000.00,027.3,026.5,000.0,036.0,029.2,016.3,0000.0,0034.35,0005.37,0002.20
2024-06-18 15:23:00,SystemResetWarning,0824.3,5.00,000.00,027.3,026.5,000.0,036.0,029.2,016.2,0000.0,0035.78,0005.35,0002.22
2024-06-18 15:24:00,SystemResetWarning,0824.3,5.01,000.00,027.3,026.5,000.0,036.0,029.2,016.7,0000.0,0035.01,0005.43,0002.22
2024-06-18 15:25:00,SystemResetWarning,0824.3,5.01,000.00,027.3,026.5,000.0,036.0,029.2,016.7,0000.0,0033.70,0005.51,0002.21
2024-06-18 15:26:00,SystemResetWarning,0824.3,5.00,000.00,027.3,026.5,000.0,036.0,029.3,016.0,0000.0,0034.05,0005.48,0002.19
2024-06-18 15:27:00,SystemResetWarning,0824.3,4.99,000.00,027.3,026.6,000.0,036.0,029.3,016.4,0000.0,0032.38,0005.35,0002.18
2024-06-18 15:28:00,SystemResetWarning,0824.4,4.99,000.00,027.4,026.6,000.0,036.0,029.3,016.8,0000.0,0031.51,0005.32,0002.19
2024-06-18 15:29:00,SystemResetWarning,0824.4,5.00,000.00,027.4,026.6,000.0,036.0,029.3,016.5,0000.0,0030.74,0005.32,0002.20
2024-06-18 15:30:00,SystemResetWarning,0824.4,5.02,000.00,027.4,026.6,000.0,036.0,029.3,016.0,0000.0,0030.13,0005.31,0002.21
2024-06-18 15:31:00,SystemResetWarning,0824.4,5.01,000.00,027.4,026.6,000.0,036.0,029.3,016.1,0000.0,0030.48,0005.35,0002.21
2024-06-18 15:32:00,SystemResetWarning,0824.4,5.00,000.00,027.4,026.6,000.0,036.0,029.3,017.0,0000.0,0027.95,0005.38,0002.22
2024-06-18 15:33:00,SystemResetWarning,0824.5,5.00,000.00,027.4,026.6,000.0,036.0,029.3,016.9,0000.0,0027.11,0005.46,0002.22
2024-06-18 15:34:00,SystemResetWarning,0824.5,5.00,000.00,027.4,026.6,000.0,036.0,029.3,016.6,0000.0,0024.57,0005.46,0002.20
2024-06-18 15:35:00,SystemResetWarning,0824.6,5.00,000.00,027.4,026.6,000.0,036.0,029.3,016.9,0000.0,0024.67,0005.46,0002.21
2024-06-18 15:36:00,SystemResetWarning,0824.7,5.00,000.00,027.4,026.6,000.0,036.0,029.3,017.0,0000.0,0026.33,0005.42,0002.20
2024-06-18 15:37:00,SystemResetWarning,0824.7,4.99,000.00,027.4,026.6,000.0,036.0,029.3,017.1,0000.0,0027.66,0005.42,0002.21
2024-06-18 15:38:00,SystemResetWarning,0824.7,5.00,000.00,027.4,026.6,000.0,036.0,029.3,017.2,0000.0,0030.44,0005.36,0002.23
2024-06-18 15:39:00,SystemResetWarning,0824.7,5.01,000.00,027.4,026.6,000.0,036.0,029.3,017.6,0000.0,0032.77,0005.33,0002.22
2024-06-18 15:40:00,SystemResetWarning,0824.7,5.00,000.00,027.4,026.6,000.0,036.0,029.3,017.1,0000.0,0035.04,0005.42,0002.23
2024-06-18 15:41:00,SystemResetWarning,0824.7,5.00,000.00,027.4,026.6,000.0,036.0,029.3,017.2,0000.0,0035.31,0005.43,0002.22
2024-06-18 15:42:00,SystemResetWarning,0824.7,5.01,000.00,027.4,026.6,000.0,036.0,029.4,017.0,0000.0,0035.68,0005.34,0002.23
2024-06-18 15:43:00,SystemResetWarning,0824.7,4.99,000.00,027.5,026.6,000.0,036.0,029.4,017.0,0000.0,0037.22,0005.31,0002.23
2024-06-18 15:44:00,SystemResetWarning,0824.7,4.99,000.00,027.5,026.6,000.0,036.0,029.4,016.7,0000.0,0037.32,0005.27,0002.24
2024-06-18 15:45:00,SystemResetWarning,0824.7,5.00,000.00,027.5,026.6,000.0,036.0,029.4,016.8,0000.0,0038.52,0005.29,0002.25
2024-06-18 15:46:00,SystemResetWarning,0824.7,5.00,000.00,027.5,026.7,000.0,036.0,029.4,016.6,0000.0,0040.32,0005.30,0002.28
2024-06-18 15:47:00,SystemResetWarning,0824.7,5.01,000.00,027.5,026.7,000.0,036.0,029.4,016.6,0000.0,0040.48,0005.22,0002.29
2024-06-18 15:48:00,SystemResetWarning,0824.8,5.00,000.00,027.5,026.7,000.0,036.1,029.4,016.6,0000.0,0039.73,0005.19,0002.30
2024-06-18 15:49:00,SystemResetWarning,0824.7,4.99,000.00,027.5,026.7,000.0,036.1,029.4,016.4,0000.0,0037.97,0005.31,0002.34
2024-06-18 15:50:00,SystemResetWarning,0824.7,5.00,000.00,027.5,026.7,000.0,036.1,029.4,016.3,0000.0,0037.77,0005.36,0002.36
2024-06-18 15:51:00,SystemResetWarning,0824.8,5.00,000.00,027.5,026.7,000.0,036.1,029.4,016.4,0000.0,0036.27,0005.33,0002.37
2024-06-18 15:52:00,SystemResetWarning,0824.8,5.00,000.00,027.5,026.7,000.0,036.1,029.4,016.9,0000.0,0036.48,0005.36,0002.39
2024-06-18 15:53:00,SystemResetWarning,0824.8,5.00,000.00,027.5,026.7,000.0,036.1,029.4,017.2,0000.0,0037.04,0005.42,0002.40
2024-06-18 15:54:00,SystemResetWarning,0824.8,5.00,000.00,027.5,026.7,000.0,036.1,029.4,017.3,0000.0,0037.27,0005.42,0002.41
2024-06-18 15:55:00,SystemResetWarning,0824.9,5.00,000.00,027.5,026.7,000.0,036.1,029.4,016.7,0000.0,0036.72,0005.44,0002.43
2024-06-18 15:56:00,SystemResetWarning,0824.9,5.00,000.00,027.5,026.7,000.0,036.1,029.4,016.7,0000.0,0035.98,0005.48,0002.43
2024-06-18 15:57:00,SystemResetWarning,0824.9,5.00,000.00,027.5,026.7,000.0,036.1,029.4,016.8,0000.0,0034.27,0005.40,0002.45
2024-06-18 15:58:00,SystemResetWarning,0824.9,5.01,000.00,027.5,026.7,000.0,036.1,029.4,017.4,0000.0,0033.30,0005.36,0002.47
2024-06-18 15:59:00,SystemResetWarning,0824.9,5.00,000.00,027.5,026.7,000.0,036.1,029.4,018.1,0000.0,0031.73,0005.32,0002.47
